Starlink 32324

operational
NORAD ID: 61863 Int'l Des: 2024-202 Owner: SPXS Country: US Constellation: starlink
LEOCIRCULAR

About Starlink 32324

Description loading...

Live Position

Loading 3D Globe...

Upcoming Passes

Altitude History

Altitude vs Time

uPlot chart will show altitude changes over time

Two-Line Element Set

1 61863U 24202U 25257.98660003 .00000247 00000-0 18480-4 0 9995
2 61863 42.9983 150.4765 0001093 263.7286 96.3441 15.27577975 48459
Epoch: Sep 14, 2025 • Age: 33 hours

Current Status

Altitude 482.9 km
Velocity 7.63 km/s
Sub-Earth Point 21.81°N, 40.75°E
Launch Date Nov 7, 2024
Age 0.8 years
Type internet

Technical Details

Classification Payload
Mass 730.00 kg
Dry Mass 700.00 kg
Total Mass 730.00 kg
Length 0.30 m
Diameter 4.10 m
Span 29.00 m
Shape Box + pan
Manufacturer SPXS
Bus Type Starlink V2M
Phase Status In Orbit
Owner/State SPXS/US

Large Constellations

Loading constellations...